This is the latest recevied weather packets stored in our database for station/object SP4MGL-10. If no packets are shown the sender has not sent any weather packets the latest 10 day(s).
| Time | Temp. | Humidity | Pressure | Rain* | Wind** | Luminosity | Snow |
|---|---|---|---|---|---|---|---|
| 1788219534 | 16.67° C | 94% | 1013.4 hPa | - | - | - | - |
| 1788218634 | 16.67° C | 92% | 1013.5 hPa | - | - | - | - |
| 1788217734 | 16.67° C | 92% | 1013.7 hPa | - | - | - | - |
| 1788216834 | 16.67° C | 93% | 1013.7 hPa | - | - | - | - |
| 1788215934 | 17.22° C | 93% | 1013.8 hPa | - | - | - | - |
| 1788215034 | 17.22° C | 90% | 1013.9 hPa | - | - | - | - |
| 1788214134 | 17.78° C | 86% | 1013.9 hPa | - | - | - | - |
| 1788213234 | 18.33° C | 83% | 1013.9 hPa | - | - | - | - |
| 1788212333 | 18.33° C | 82% | 1014 hPa | - | - | - | - |
| 1788211432 | 18.33° C | 83% | 1014.1 hPa | - | - | - | - |
| 1788210532 | 18.33° C | 84% | 1014.1 hPa | - | - | - | - |
| 1788209632 | 18.89° C | 83% | 1014.2 hPa | - | - | - | - |
| 1788208732 | 18.89° C | 84% | 1014.3 hPa | - | - | - | - |
| 1788208543 | 18.89° C | 85% | 1014.1 hPa | - | - | - | - |
| 1788207825 | 18.89° C | 89% | 1014.2 hPa | - | - | - | - |
| 1788206925 | 19.44° C | 88% | 1014 hPa | - | - | - | - |
| 1788206025 | 19.44° C | 87% | 1013.8 hPa | - | - | - | - |
| 1788205125 | 20° C | 84% | 1013.7 hPa | - | - | - | - |
| 1788204225 | 20° C | 82% | 1013.7 hPa | - | - | - | - |
| 1788203325 | 20° C | 80% | 1013.7 hPa | - | - | - | - |
| 1788202425 | 20° C | 79% | 1013.5 hPa | - | - | - | - |
| 1788201525 | 20° C | 81% | 1013.6 hPa | - | - | - | - |
| 1788200624 | 20.56° C | 80% | 1013.4 hPa | - | - | - | - |
| 1788199724 | 20.56° C | 78% | 1013.4 hPa | - | - | - | - |
| 1788198824 | 20.56° C | 75% | 1013.3 hPa | - | - | - | - |
* Rain since midnight (hover to see other rain measurements)
** Current wind speed in m/s (hover to see current wind gust speed)